WJA180 CYLW-CYYC

Flight info

Callsign WJA180
Flight time N/A
Altitude 31000
Route WHATS DCT MENBO Q983 IGVEP IGVEP7
Aircraft B737/M-SDE2E3FGHIRWXY/LB1

Departure

Time 2026-05-08 22:55
Airport Kelowna International Airport (CYLW)

Arrival

Time N/A
Airport Calgary International Airport (CYYC)
Time Latitude Longitude Altitude Speed Heading
2026-05-08 22:35 49.95018 -119.38007 1419 ft 0 kts 309°
2026-05-08 22:45 49.95006 -119.37985 1419 ft 4 kts 310°
2026-05-08 22:45 49.94993 -119.37961 1419 ft 4 kts 297°
2026-05-08 22:45 49.94984 -119.37931 1419 ft 4 kts 259°
2026-05-08 22:46 49.94993 -119.37908 1419 ft 4 kts 255°
2026-05-08 22:46 49.94990 -119.37894 1419 ft 4 kts 353°
2026-05-08 22:46 49.94972 -119.37891 1419 ft 0 kts 355°
2026-05-08 22:48 49.94973 -119.37891 1419 ft 1 kts 355°
2026-05-08 22:48 49.94986 -119.37893 1419 ft 3 kts 355°
2026-05-08 22:48 49.95022 -119.37898 1419 ft 9 kts 355°
2026-05-08 22:49 49.95106 -119.37910 1419 ft 12 kts 354°
2026-05-08 22:49 49.95224 -119.37866 1421 ft 9 kts 355°
2026-05-08 22:49 49.95286 -119.37874 1418 ft 9 kts 353°
2026-05-08 22:50 49.95346 -119.37883 1418 ft 9 kts 355°
2026-05-08 22:50 49.95404 -119.37891 1418 ft 8 kts 354°
2026-05-08 22:50 49.95461 -119.37900 1420 ft 8 kts 354°
2026-05-08 22:50 49.95515 -119.37906 1422 ft 8 kts 357°
2026-05-08 22:51 49.95568 -119.37913 1422 ft 8 kts 354°
2026-05-08 22:51 49.95620 -119.37921 1418 ft 7 kts 355°
2026-05-08 22:51 49.95692 -119.37931 1419 ft 14 kts 354°
2026-05-08 22:51 49.95794 -119.37943 1419 ft 15 kts 355°
2026-05-08 22:52 49.95893 -119.37960 1419 ft 14 kts 354°
2026-05-08 22:52 49.95989 -119.37972 1420 ft 13 kts 355°
2026-05-08 22:52 49.96080 -119.37986 1419 ft 13 kts 355°
2026-05-08 22:52 49.96168 -119.37998 1419 ft 13 kts 355°
2026-05-08 22:53 49.96254 -119.38009 1419 ft 12 kts 354°
2026-05-08 22:53 49.96338 -119.38021 1419 ft 12 kts 355°
2026-05-08 22:53 49.96393 -119.38028 1421 ft 12 kts 355°
2026-05-08 22:53 49.96498 -119.38043 1418 ft 11 kts 355°
2026-05-08 22:54 49.96576 -119.38054 1418 ft 11 kts 356°
2026-05-08 22:54 49.96604 -119.38021 1418 ft 8 kts 60°
2026-05-08 22:54 49.96588 -119.37924 1421 ft 7 kts 143°
2026-05-08 22:54 49.96537 -119.37908 1416 ft 8 kts 175°
2026-05-08 22:55 49.96312 -119.37882 1419 ft 71 kts 175°
2026-05-08 22:55 49.95860 -119.37814 1421 ft 121 kts 175°
2026-05-08 22:55 49.94805 -119.37659 1508 ft 176 kts 180°
2026-05-08 22:55 49.93494 -119.37535 2109 ft 199 kts 179°
2026-05-08 22:56 49.92167 -119.37338 3299 ft 187 kts 177°
2026-05-08 22:56 49.90810 -119.37139 4010 ft 210 kts 178°
2026-05-08 22:56 49.89240 -119.37247 4280 ft 244 kts 187°
2026-05-08 22:56 49.87483 -119.36685 4706 ft 276 kts 148°
2026-05-08 22:57 49.86144 -119.34528 5720 ft 283 kts 120°
2026-05-08 22:57 49.85521 -119.31636 6685 ft 291 kts 94°
2026-05-08 22:57 49.85666 -119.28530 7721 ft 289 kts 81°
2026-05-08 22:57 49.85996 -119.25446 8776 ft 293 kts 81°
2026-05-08 22:58 49.86359 -119.22305 9707 ft 300 kts 82°
2026-05-08 22:58 49.86733 -119.19119 10646 ft 305 kts 82°
2026-05-08 22:58 49.87122 -119.15739 10972 ft 333 kts 82°
2026-05-08 22:58 49.87534 -119.12107 11568 ft 347 kts 82°
2026-05-08 22:59 49.87945 -119.08456 12505 ft 350 kts 82°
2026-05-08 22:59 49.88363 -119.04704 13366 ft 357 kts 82°
2026-05-08 22:59 49.88785 -119.00887 14255 ft 361 kts 82°
2026-05-08 22:59 49.89209 -118.97028 15085 ft 367 kts 82°
2026-05-08 23:00 49.89637 -118.93103 15978 ft 370 kts 82°
2026-05-08 23:00 49.90066 -118.89150 16831 ft 375 kts 82°
2026-05-08 23:00 49.90503 -118.85110 17603 ft 383 kts 81°
2026-05-08 23:00 49.90945 -118.81008 18399 ft 388 kts 81°
2026-05-08 23:01 49.91391 -118.76860 19127 ft 392 kts 81°
2026-05-08 23:01 49.91839 -118.72668 19871 ft 396 kts 81°
2026-05-08 23:01 49.92291 -118.68429 20599 ft 400 kts 81°
2026-05-08 23:01 49.92746 -118.64146 21321 ft 404 kts 81°
2026-05-08 23:02 49.93204 -118.59812 22021 ft 410 kts 82°
2026-05-08 23:02 49.93666 -118.55424 22707 ft 415 kts 82°
2026-05-08 23:02 49.94132 -118.50991 23386 ft 419 kts 82°
2026-05-08 23:02 49.94602 -118.46495 23983 ft 424 kts 82°
2026-05-08 23:03 49.95075 -118.41959 24578 ft 427 kts 82°
2026-05-08 23:03 49.95549 -118.37401 25156 ft 429 kts 82°
2026-05-08 23:03 49.96024 -118.32811 25719 ft 432 kts 82°
2026-05-08 23:03 49.96506 -118.28184 26233 ft 437 kts 81°
2026-05-08 23:04 49.97221 -118.23576 26733 ft 441 kts 74°
2026-05-08 23:04 49.98146 -118.19009 27253 ft 445 kts 73°
2026-05-08 23:04 49.99132 -118.14428 27761 ft 449 kts 72°
2026-05-08 23:04 50.00140 -118.09803 28254 ft 453 kts 72°
2026-05-08 23:05 50.01147 -118.05138 28748 ft 457 kts 73°
2026-05-08 23:05 50.02148 -118.00430 29237 ft 460 kts 73°
2026-05-08 23:05 50.03142 -117.95690 29823 ft 461 kts 73°
2026-05-08 23:05 50.04122 -117.90964 30430 ft 458 kts 73°
2026-05-08 23:06 50.05090 -117.86261 31061 ft 455 kts 74°
2026-05-08 23:06 50.06049 -117.81582 31640 ft 453 kts 74°
2026-05-08 23:06 50.07002 -117.76910 32156 ft 453 kts 75°
2026-05-08 23:06 50.07953 -117.72244 32688 ft 451 kts 75°
2026-05-08 23:07 50.08900 -117.67582 32978 ft 454 kts 75°
2026-05-08 23:07 50.09853 -117.62875 32951 ft 456 kts 75°
2026-05-08 23:07 50.11745 -117.53521 32947 ft 450 kts 75°
2026-05-08 23:08 50.13621 -117.44200 32980 ft 458 kts 75°
2026-05-08 23:08 50.15532 -117.34652 32985 ft 462 kts 75°
2026-05-08 23:09 50.17433 -117.25127 32956 ft 453 kts 75°
2026-05-08 23:09 50.19289 -117.15771 32966 ft 456 kts 75°
2026-05-08 23:10 50.21173 -117.06219 32996 ft 460 kts 74°
2026-05-08 23:10 50.23043 -116.96697 32998 ft 463 kts 75°
2026-05-08 23:11 50.24931 -116.87041 33004 ft 464 kts 75°
2026-05-08 23:11 50.26804 -116.77412 32998 ft 462 kts 75°
2026-05-08 23:12 50.28658 -116.67829 32992 ft 459 kts 74°
2026-05-08 23:12 50.28850 -116.66836 32991 ft 458 kts 74°
2026-05-08 23:13 50.30349 -116.59047 33003 ft 456 kts 74°
2026-05-08 23:13 50.32170 -116.49546 32998 ft 456 kts 74°
2026-05-08 23:14 50.33986 -116.40019 32468 ft 462 kts 74°
2026-05-08 23:14 50.34898 -116.35216 31991 ft 458 kts 74°
2026-05-08 23:14 50.35799 -116.30464 31486 ft 454 kts 74°
2026-05-08 23:15 50.36689 -116.25756 31006 ft 449 kts 73°
2026-05-08 23:15 50.37571 -116.21079 30557 ft 446 kts 73°
2026-05-08 23:15 50.38445 -116.16433 30052 ft 442 kts 73°
2026-05-08 23:15 50.39321 -116.11841 29567 ft 437 kts 72°
2026-05-08 23:16 50.40278 -116.07362 29143 ft 430 kts 70°
2026-05-08 23:16 50.41274 -116.02964 28652 ft 425 kts 70°
2026-05-08 23:16 50.42269 -115.98626 28151 ft 421 kts 70°
2026-05-08 23:16 50.43237 -115.94380 27650 ft 417 kts 70°
2026-05-08 23:17 50.44198 -115.90109 27178 ft 414 kts 70°
2026-05-08 23:17 50.45144 -115.85861 26703 ft 411 kts 70°
2026-05-08 23:17 50.46077 -115.81637 26213 ft 408 kts 70°
2026-05-08 23:17 50.47001 -115.77434 25749 ft 406 kts 70°
2026-05-08 23:18 50.47916 -115.73261 25265 ft 403 kts 70°
2026-05-08 23:18 50.48824 -115.69110 24805 ft 401 kts 70°
2026-05-08 23:18 50.49727 -115.64975 24325 ft 399 kts 70°
2026-05-08 23:18 50.50622 -115.60867 23855 ft 398 kts 70°
2026-05-08 23:19 50.51517 -115.56755 23339 ft 397 kts 70°
2026-05-08 23:19 50.52407 -115.52665 22802 ft 394 kts 70°
2026-05-08 23:19 50.53285 -115.48612 22319 ft 391 kts 70°
2026-05-08 23:19 50.54155 -115.44587 21854 ft 386 kts 70°
2026-05-08 23:20 50.55005 -115.40624 21467 ft 380 kts 70°
2026-05-08 23:20 50.55841 -115.36698 20976 ft 377 kts 71°
2026-05-08 23:20 50.56670 -115.32808 20539 ft 374 kts 70°
2026-05-08 23:20 50.57491 -115.28947 20076 ft 371 kts 71°
2026-05-08 23:21 50.58305 -115.25113 19605 ft 368 kts 71°
2026-05-08 23:21 50.59109 -115.21300 19163 ft 366 kts 71°
2026-05-08 23:21 50.59906 -115.17508 18694 ft 364 kts 71°
2026-05-08 23:21 50.60697 -115.13741 18225 ft 362 kts 71°
2026-05-08 23:22 50.61483 -115.09991 17775 ft 357 kts 71°
2026-05-08 23:22 50.62258 -115.06286 17205 ft 356 kts 71°
2026-05-08 23:22 50.63039 -115.02602 16739 ft 353 kts 71°
2026-05-08 23:22 50.63824 -114.98966 16293 ft 349 kts 70°
2026-05-08 23:23 50.64604 -114.95362 15805 ft 347 kts 70°
2026-05-08 23:23 50.65379 -114.91771 15351 ft 344 kts 70°
2026-05-08 23:23 50.66143 -114.88208 14911 ft 342 kts 71°
2026-05-08 23:23 50.66902 -114.84656 14440 ft 340 kts 71°
2026-05-08 23:24 50.67636 -114.81134 14029 ft 338 kts 71°
2026-05-08 23:24 50.68363 -114.77613 13586 ft 336 kts 71°
2026-05-08 23:24 50.69081 -114.74136 13349 ft 328 kts 71°
2026-05-08 23:24 50.69770 -114.70798 13188 ft 317 kts 71°
2026-05-08 23:25 50.70445 -114.67535 13043 ft 306 kts 70°
2026-05-08 23:25 50.71439 -114.64664 12834 ft 294 kts 46°
2026-05-08 23:25 50.72835 -114.62373 12614 ft 287 kts 43°
2026-05-08 23:25 50.74227 -114.60142 12355 ft 285 kts 43°
2026-05-08 23:26 50.75609 -114.57909 12112 ft 283 kts 44°
2026-05-08 23:26 50.76975 -114.55692 11839 ft 280 kts 44°
2026-05-08 23:26 50.78322 -114.53497 11575 ft 277 kts 44°
2026-05-08 23:26 50.79654 -114.51320 11303 ft 274 kts 45°
2026-05-08 23:27 50.80972 -114.49169 11059 ft 271 kts 44°
2026-05-08 23:27 50.82313 -114.47100 10795 ft 268 kts 42°
2026-05-08 23:27 50.83659 -114.45075 10547 ft 266 kts 42°
2026-05-08 23:27 50.84995 -114.43063 10298 ft 264 kts 43°
2026-05-08 23:28 50.86321 -114.41058 10057 ft 263 kts 43°
2026-05-08 23:28 50.87638 -114.39057 9793 ft 262 kts 43°
2026-05-08 23:28 50.88947 -114.37062 9525 ft 260 kts 43°
2026-05-08 23:28 50.90249 -114.35078 9266 ft 259 kts 43°
2026-05-08 23:29 50.91342 -114.32860 8974 ft 257 kts 67°
2026-05-08 23:29 50.91691 -114.30132 8774 ft 252 kts 88°
2026-05-08 23:29 50.91631 -114.27361 8552 ft 252 kts 91°
2026-05-08 23:29 50.91534 -114.24572 8330 ft 254 kts 92°
2026-05-08 23:30 50.91445 -114.21777 8080 ft 253 kts 91°
2026-05-08 23:30 50.91365 -114.19005 7829 ft 250 kts 89°
2026-05-08 23:30 50.91289 -114.16271 7601 ft 247 kts 89°
2026-05-08 23:30 50.91264 -114.13566 7379 ft 244 kts 87°
2026-05-08 23:31 50.91271 -114.10891 7146 ft 242 kts 86°
2026-05-08 23:31 50.91278 -114.08236 6920 ft 240 kts 86°
2026-05-08 23:31 50.91377 -114.05631 6687 ft 233 kts 69°
2026-05-08 23:31 50.92190 -114.03534 6471 ft 220 kts 37°
2026-05-08 23:32 50.93480 -114.02460 6281 ft 210 kts 12°
2026-05-08 23:32 50.94904 -114.02214 6083 ft 202 kts
2026-05-08 23:32 50.94962 -114.02212 6073 ft 202 kts
2026-05-08 23:33 50.96061 -114.02200 5880 ft 197 kts 359°
2026-05-08 23:33 50.97397 -114.02199 5656 ft 186 kts 359°
2026-05-08 23:33 50.98648 -114.02193 5476 ft 176 kts 360°
2026-05-08 23:33 50.99858 -114.02182 5296 ft 172 kts
2026-05-08 23:34 51.01044 -114.02169 5128 ft 171 kts 359°
2026-05-08 23:34 51.02206 -114.02153 4979 ft 164 kts 360°
2026-05-08 23:34 51.03331 -114.02138 4813 ft 159 kts 360°
2026-05-08 23:34 51.04396 -114.02137 4586 ft 147 kts 358°
2026-05-08 23:35 51.05346 -114.02139 4431 ft 130 kts 360°
2026-05-08 23:35 51.06226 -114.02137 4219 ft 121 kts 360°
2026-05-08 23:35 51.07072 -114.02134 4082 ft 121 kts 359°
2026-05-08 23:35 51.07919 -114.02141 3919 ft 125 kts
2026-05-08 23:36 51.08787 -114.02128 3777 ft 120 kts 360°
2026-05-08 23:36 51.09636 -114.02135 3597 ft 122 kts